This demonstration page uses our WeatherBlox Daily Observations layout. Learn more.

Left ArrowRight Arrow

44.8408, -93.29828

Hourly Observations for March 19, 2022

Temp ( °F °C ) Dew Point ( °F °C ) Humidity (%) Winds ( mph kmh ) Pressure ( in mb ) Visibility ( mi km ) Precip ( " mm )
12:53 am 00:53 Clear 31 -0.6 25 -3.9 79 79 N 6 9 29.96 1015 10 16 0.00 0.00
1:53 am 01:53 Clear 30 -1.1 24 -4.4 79 79 NNE 7 11 29.95 1014 10 16 0.00 0.00
2:53 am 02:53 Clear 28 -2.2 23 -5 81 81 N 5 7 29.95 1014 10 16 0.00 0.00
3:53 am 03:53 Clear 27 -2.8 23 -5 85 85 NNW 5 7 29.93 1014 10 16 0.00 0.00
4:43 am 04:43 Partly Cloudy 27 -2.8 24 -4.4 89 89 NNW 6 9 29.98 1015 10 16 0.00 0.00
4:53 am 04:53 Mostly Cloudy 27 -2.8 24 -4.4 89 89 N 9 15 29.94 1014 10 16 0.00 0.00
5:20 am 05:20 Cloudy 27 -2.8 24 -4.4 89 89 N 7 11 29.97 1015 8 13 0.00 0.00
5:53 am 05:53 Cloudy 26 -3.3 24 -4.4 92 92 N 8 13 29.95 1014 9 14 0.00 0.00
6:53 am 06:53 Cloudy 26 -3.3 24 -4.4 92 92 N 8 13 29.96 1015 10 16 0.00 0.00
7:53 am 07:53 Cloudy 27 -2.8 25 -3.9 92 92 VRB 6 9 29.98 1015 7 11 0.00 0.00
8:42 am 08:42 Cloudy 27 -2.8 25 -3.9 92 92 NW 5 7 30.02 1016 8 13 0.00 0.00
8:53 am 08:53 Cloudy 27 -2.8 25 -3.9 92 92 NW 7 11 29.99 1016 7 11 0.00 0.00
9:53 am 09:53 Cloudy 30 -1.1 27 -2.8 88 88 N 6 9 30.00 1016 7 11 0.00 0.00
10:35 am 10:35 Mostly Sunny 33 0.6 27 -2.8 78 78 Calm 30.01 1016 9 14 0.00 0.00
10:53 am 10:53 Mostly Sunny 34 1.1 28 -2.2 79 79 WSW 3 6 30.00 1016 10 16 0.00 0.00
11:53 am 11:53 Sunny 40 4.4 28 -2.2 63 63 VRB 5 7 29.99 1016 10 16 0.00 0.00
12:53 pm 12:53 Sunny 45 7.2 28 -2.2 52 52 NW 6 9 29.98 1015 10 16 0.00 0.00
1:53 pm 13:53 Sunny 47 8.3 26 -3.3 44 44 VRB 3 6 29.97 1015 10 16 0.00 0.00
2:53 pm 14:53 Mostly Sunny 50 10 26 -3.3 39 39 VRB 3 6 29.95 1014 10 16 0.00 0.00
3:53 pm 15:53 Mostly Sunny 51 10.6 23 -5 33 33 W 3 6 29.95 1014 10 16 0.00 0.00
4:53 pm 16:53 Mostly Sunny 52 11.1 24 -4.4 34 34 WSW 5 7 29.95 1014 10 16 0.00 0.00
5:53 pm 17:53 Partly Cloudy 52 11.1 25 -3.9 35 35 WSW 6 9 29.94 1014 10 16 0.00 0.00
6:53 pm 18:53 Mostly Sunny 52 11.1 26 -3.3 37 37 SW 3 6 29.95 1014 10 16 0.00 0.00
7:53 pm 19:53 Mostly Clear 50 10 28 -2.2 43 43 SW 3 6 29.96 1015 10 16 0.00 0.00
8:53 pm 20:53 Clear 46 7.8 28 -2.2 50 50 Calm 29.96 1015 10 16 0.00 0.00
9:53 pm 21:53 Clear 45 7.2 29 -1.7 54 54 WSW 3 6 29.97 1015 10 16 0.00 0.00
10:53 pm 22:53 Clear 39 3.9 29 -1.7 67 67 WNW 9 15 29.98 1015 10 16 0.00 0.00
11:53 pm 23:53 Clear 39 3.9 32 0 76 76 NW 7 11 30.00 1016 10 16 0.00 0.00

Powered by AerisWeather